Time,TemperatureF,DewpointF,PressureIn,WindDirection,WindDirectionDegrees,WindSpeedMPH,WindSpeedGustMPH,Humidity,HourlyPrecipIn,Conditions,Clouds,dailyrainin,SoftwareType,DateUTC
2013-03-08 00:01:00,57.2,45.5,29.99,South,180,5.8,-999.0,65,-99.99,,,0.00,Acu-Link.com,2013-03-08 06:01:00,
2013-03-08 00:16:00,56.8,46.0,29.99,SE,135,6.8,-999.0,67,-99.99,,,0.00,Acu-Link.com,2013-03-08 06:16:00,
2013-03-08 00:31:00,56.8,46.0,29.99,South,180,9.9,-999.0,67,-99.99,,,0.00,Acu-Link.com,2013-03-08 06:31:00,
2013-03-08 00:46:00,57.0,46.5,30.00,South,180,6.3,-999.0,68,-99.99,,,0.00,Acu-Link.com,2013-03-08 06:46:00,
2013-03-08 01:01:00,57.2,46.7,30.00,SSE,157,7.8,-999.0,68,-99.99,,,0.00,Acu-Link.com,2013-03-08 07:01:00,
2013-03-08 01:16:00,57.2,47.1,29.99,SSE,157,7.3,-999.0,69,-99.99,,,0.00,Acu-Link.com,2013-03-08 07:16:00,
2013-03-08 01:31:00,57.2,47.1,29.99,South,180,8.9,-999.0,69,-99.99,,,0.00,Acu-Link.com,2013-03-08 07:31:00,
2013-03-08 01:46:00,57.4,47.3,29.99,SSE,157,13.5,-999.0,69,-99.99,,,0.00,Acu-Link.com,2013-03-08 07:46:00,
2013-03-08 02:01:00,57.6,47.5,29.99,SSE,157,7.8,-999.0,69,-99.99,,,0.00,Acu-Link.com,2013-03-08 08:01:00,
2013-03-08 02:17:00,57.6,47.5,29.99,SSE,157,8.3,-999.0,69,-99.99,,,0.00,Acu-Link.com,2013-03-08 08:17:00,
2013-03-08 02:32:00,57.4,47.3,29.98,ESE,112,8.3,-999.0,69,-99.99,,,0.00,Acu-Link.com,2013-03-08 08:32:00,
2013-03-08 02:47:00,57.4,47.7,29.97,SSE,157,9.4,-999.0,70,-99.99,,,0.00,Acu-Link.com,2013-03-08 08:47:00,
2013-03-08 03:02:00,57.2,47.9,29.98,SSE,157,5.3,-999.0,71,-99.99,,,0.00,Acu-Link.com,2013-03-08 09:02:00,
2013-03-08 03:17:00,57.2,47.9,29.99,SSW,202,7.3,-999.0,71,-99.99,,,0.00,Acu-Link.com,2013-03-08 09:17:00,
2013-03-08 03:32:00,56.8,48.2,29.98,South,180,8.9,-999.0,73,-99.99,,,0.00,Acu-Link.com,2013-03-08 09:32:00,
2013-03-08 03:48:00,56.7,48.5,29.97,SSE,157,7.8,-999.0,74,-99.99,,,0.00,Acu-Link.com,2013-03-08 09:48:00,
2013-03-08 04:03:00,56.8,49.0,29.97,South,180,6.8,-999.0,75,-99.99,,,0.00,Acu-Link.com,2013-03-08 10:03:00,
2013-03-08 04:18:00,56.5,49.0,29.98,South,180,9.4,-999.0,76,-99.99,,,0.00,Acu-Link.com,2013-03-08 10:18:00,
2013-03-08 04:33:00,56.5,49.0,29.98,SSE,157,7.8,-999.0,76,-99.99,,,0.00,Acu-Link.com,2013-03-08 10:33:00,
2013-03-08 04:48:00,56.3,49.2,29.97,SSE,157,7.8,-999.0,77,-99.99,,,0.00,Acu-Link.com,2013-03-08 10:48:00,
2013-03-08 05:03:00,56.3,49.2,29.98,SSE,157,8.3,-999.0,77,-99.99,,,0.00,Acu-Link.com,2013-03-08 11:03:00,
2013-03-08 05:19:00,56.3,49.5,29.98,ESE,112,7.8,-999.0,78,-99.99,,,0.00,Acu-Link.com,2013-03-08 11:19:00,
2013-03-08 05:34:00,54.0,47.3,29.99,SSE,157,4.7,-999.0,78,-99.99,,,0.00,Acu-Link.com,2013-03-08 11:34:00,
2013-03-08 05:49:00,55.9,49.1,29.99,SSE,157,6.3,-999.0,78,-99.99,,,0.00,Acu-Link.com,2013-03-08 11:49:00,
2013-03-08 06:04:00,55.8,49.4,29.99,SSE,157,4.2,-999.0,79,-99.99,,,0.00,Acu-Link.com,2013-03-08 12:04:00,
2013-03-08 06:19:00,55.8,49.7,29.99,SSE,157,3.7,-999.0,80,-99.99,,,0.00,Acu-Link.com,2013-03-08 12:19:00,
2013-03-08 06:34:00,55.4,49.3,29.99,South,180,6.8,-999.0,80,-99.99,,,0.00,Acu-Link.com,2013-03-08 12:34:00,
2013-03-08 06:49:00,55.4,49.7,29.99,SSE,157,6.8,-999.0,81,-99.99,,,0.00,Acu-Link.com,2013-03-08 12:49:00,
2013-03-08 07:04:00,55.4,50.0,29.99,SE,135,5.8,-999.0,82,-99.99,,,0.00,Acu-Link.com,2013-03-08 13:04:00,
2013-03-08 07:19:00,55.2,49.8,30.00,SSE,157,4.7,-999.0,82,-99.99,,,0.00,Acu-Link.com,2013-03-08 13:19:00,
2013-03-08 07:35:00,55.2,50.1,30.00,SE,135,4.2,-999.0,83,-99.99,,,0.00,Acu-Link.com,2013-03-08 13:35:00,
2013-03-08 07:50:00,55.2,50.1,30.00,SSE,157,6.3,-999.0,83,-99.99,,,0.00,Acu-Link.com,2013-03-08 13:50:00,
2013-03-08 08:05:00,55.2,50.5,30.01,SE,135,3.2,-999.0,84,-99.99,,,0.00,Acu-Link.com,2013-03-08 14:05:00,
2013-03-08 08:20:00,55.2,50.8,30.03,SE,135,4.2,-999.0,85,-99.99,,,0.00,Acu-Link.com,2013-03-08 14:20:00,
2013-03-08 08:35:00,55.4,51.3,30.04,South,180,4.7,-999.0,86,-99.99,,,0.00,Acu-Link.com,2013-03-08 14:35:00,
2013-03-08 08:50:00,55.6,51.5,30.05,SE,135,3.2,-999.0,86,-99.99,,,0.00,Acu-Link.com,2013-03-08 14:50:00,
2013-03-08 09:06:00,55.9,51.8,30.06,SE,135,3.7,-999.0,86,-99.99,,,0.00,Acu-Link.com,2013-03-08 15:06:00,
2013-03-08 09:21:00,56.1,51.7,30.06,SE,135,3.7,-999.0,85,-99.99,,,0.00,Acu-Link.com,2013-03-08 15:21:00,
2013-03-08 09:36:00,56.1,52.3,30.06,ESE,112,6.3,-999.0,87,-99.99,,,0.00,Acu-Link.com,2013-03-08 15:36:00,
2013-03-08 09:51:00,56.3,53.7,30.05,ESE,112,5.3,-999.0,91,-99.99,,,0.00,Acu-Link.com,2013-03-08 15:51:00,
2013-03-08 10:06:00,56.3,55.7,30.05,ESE,112,6.8,-999.0,98,-99.99,,,0.00,Acu-Link.com,2013-03-08 16:06:00,
2013-03-08 10:21:00,56.1,53.8,30.04,SSE,157,6.8,-999.0,92,-99.99,,,0.00,Acu-Link.com,2013-03-08 16:21:00,
2013-03-08 10:36:00,56.1,55.5,30.05,SE,135,5.8,-999.0,98,-99.99,,,0.00,Acu-Link.com,2013-03-08 16:36:00,
2013-03-08 10:51:00,55.8,55.2,30.05,SE,135,4.2,-999.0,98,-99.99,,,0.00,Acu-Link.com,2013-03-08 16:51:00,
2013-03-08 11:06:00,55.9,55.3,30.04,SE,135,6.3,-999.0,98,-99.99,,,0.02,Acu-Link.com,2013-03-08 17:06:00,
2013-03-08 11:22:00,55.9,55.3,30.04,SE,135,4.7,-999.0,98,-99.99,,,0.02,Acu-Link.com,2013-03-08 17:22:00,
2013-03-08 11:37:00,56.3,55.7,30.02,ESE,112,6.3,-999.0,98,-99.99,,,0.03,Acu-Link.com,2013-03-08 17:37:00,
2013-03-08 11:52:00,56.3,55.7,30.01,SE,135,6.3,-999.0,98,-99.99,,,0.03,Acu-Link.com,2013-03-08 17:52:00,
2013-03-08 12:07:00,56.5,55.9,30.00,SE,135,5.3,-999.0,98,-99.99,,,0.03,Acu-Link.com,2013-03-08 18:07:00,
2013-03-08 12:22:00,56.5,55.9,30.01,SE,135,3.7,-999.0,98,-99.99,,,0.03,Acu-Link.com,2013-03-08 18:22:00,
2013-03-08 12:37:00,57.2,56.6,30.00,SE,135,5.3,-999.0,98,-99.99,,,0.03,Acu-Link.com,2013-03-08 18:37:00,
2013-03-08 12:52:00,57.6,57.0,29.99,SSE,157,4.2,-999.0,98,-99.99,,,0.03,Acu-Link.com,2013-03-08 18:52:00,
2013-03-08 13:07:00,57.9,57.3,29.98,SE,135,4.2,-999.0,98,-99.99,,,0.03,Acu-Link.com,2013-03-08 19:07:00,
2013-03-08 13:22:00,58.6,58.0,29.97,SSE,157,6.8,-999.0,98,-99.99,,,0.03,Acu-Link.com,2013-03-08 19:22:00,
2013-03-08 13:38:00,59.0,58.4,29.97,South,180,5.3,-999.0,98,-99.99,,,0.04,Acu-Link.com,2013-03-08 19:38:00,
2013-03-08 13:53:00,59.0,58.4,29.96,SSE,157,4.7,-999.0,98,-99.99,,,0.04,Acu-Link.com,2013-03-08 19:53:00,
2013-03-08 14:08:00,59.4,58.8,29.95,SSE,157,6.8,-999.0,98,-99.99,,,0.04,Acu-Link.com,2013-03-08 20:08:00,
2013-03-08 14:23:00,59.7,59.1,29.95,SSE,157,4.7,-999.0,98,-99.99,,,0.04,Acu-Link.com,2013-03-08 20:23:00,
2013-03-08 14:38:00,59.9,59.3,29.95,SSE,157,5.8,-999.0,98,-99.99,,,0.04,Acu-Link.com,2013-03-08 20:38:00,
2013-03-08 14:53:00,59.9,59.3,29.95,South,180,8.3,-999.0,98,-99.99,,,0.04,Acu-Link.com,2013-03-08 20:53:00,
2013-03-08 15:08:00,59.9,59.3,29.95,SSE,157,5.3,-999.0,98,-99.99,,,0.04,Acu-Link.com,2013-03-08 21:08:00,
2013-03-08 15:23:00,59.9,59.3,29.94,SSE,157,3.7,-999.0,98,-99.99,,,0.05,Acu-Link.com,2013-03-08 21:23:00,
2013-03-08 15:38:00,60.1,59.5,29.93,SE,135,4.7,-999.0,98,-99.99,,,0.05,Acu-Link.com,2013-03-08 21:38:00,
2013-03-08 15:54:00,60.1,59.5,29.93,SE,135,4.7,-999.0,98,-99.99,,,0.05,Acu-Link.com,2013-03-08 21:54:00,
2013-03-08 16:09:00,60.3,59.7,29.92,SE,135,4.7,-999.0,98,-99.99,,,0.05,Acu-Link.com,2013-03-08 22:09:00,
2013-03-08 16:24:00,60.3,59.7,29.90,ESE,112,2.7,-999.0,98,-99.99,,,0.05,Acu-Link.com,2013-03-08 22:24:00,
2013-03-08 16:39:00,60.3,59.7,29.91,ESE,112,3.7,-999.0,98,-99.99,,,0.05,Acu-Link.com,2013-03-08 22:39:00,
2013-03-08 16:54:00,60.3,59.7,29.91,ESE,112,3.7,-999.0,98,-99.99,,,0.05,Acu-Link.com,2013-03-08 22:54:00,
2013-03-08 17:09:00,60.6,60.0,29.91,ESE,112,8.3,-999.0,98,-99.99,,,0.05,Acu-Link.com,2013-03-08 23:09:00,
2013-03-08 17:24:00,60.8,60.2,29.90,SE,135,4.2,-999.0,98,-99.99,,,0.05,Acu-Link.com,2013-03-08 23:24:00,
2013-03-08 17:39:00,61.2,60.6,29.90,SE,135,4.2,-999.0,98,-99.99,,,0.05,Acu-Link.com,2013-03-08 23:39:00,
2013-03-08 17:54:00,61.7,61.1,29.90,SE,135,2.7,-999.0,98,-99.99,,,0.05,Acu-Link.com,2013-03-08 23:54:00,
2013-03-08 18:10:00,61.7,61.1,29.89,SE,135,4.7,-999.0,98,-99.99,,,0.05,Acu-Link.com,2013-03-09 00:10:00,
2013-03-08 18:25:00,62.1,61.5,29.89,SSE,157,3.7,-999.0,98,-99.99,,,0.05,Acu-Link.com,2013-03-09 00:25:00,
2013-03-08 18:40:00,61.7,61.1,29.90,SSE,157,3.7,-999.0,98,-99.99,,,0.05,Acu-Link.com,2013-03-09 00:40:00,
2013-03-08 18:55:00,61.3,60.7,29.89,SE,135,5.8,-999.0,98,-99.99,,,0.05,Acu-Link.com,2013-03-09 00:55:00,
2013-03-08 19:10:00,60.8,60.2,29.90,SSE,157,2.7,-999.0,98,-99.99,,,0.05,Acu-Link.com,2013-03-09 01:10:00,
2013-03-08 19:25:00,60.4,59.8,29.90,South,180,4.2,-999.0,98,-99.99,,,0.05,Acu-Link.com,2013-03-09 01:25:00,
2013-03-08 19:40:00,60.4,59.8,29.89,SSE,157,5.3,-999.0,98,-99.99,,,0.05,Acu-Link.com,2013-03-09 01:40:00,
2013-03-08 19:55:00,60.6,60.0,29.89,SSE,157,5.3,-999.0,98,-99.99,,,0.05,Acu-Link.com,2013-03-09 01:55:00,
2013-03-08 20:10:00,60.8,60.2,29.90,South,180,6.3,-999.0,98,-99.99,,,0.05,Acu-Link.com,2013-03-09 02:10:00,
2013-03-08 20:26:00,61.0,60.4,29.90,SSE,157,6.8,-999.0,98,-99.99,,,0.05,Acu-Link.com,2013-03-09 02:26:00,
2013-03-08 20:41:00,61.2,60.6,29.90,SE,135,5.3,-999.0,98,-99.99,,,0.05,Acu-Link.com,2013-03-09 02:41:00,
2013-03-08 20:56:00,61.2,60.6,29.90,SSE,157,4.7,-999.0,98,-99.99,,,0.05,Acu-Link.com,2013-03-09 02:56:00,
2013-03-08 21:11:00,61.2,58.9,29.90,SE,135,6.3,-999.0,92,-99.99,,,0.05,Acu-Link.com,2013-03-09 03:11:00,
2013-03-08 21:26:00,61.2,58.5,29.91,SSE,157,8.3,-999.0,91,-99.99,,,0.05,Acu-Link.com,2013-03-09 03:26:00,
2013-03-08 21:41:00,61.0,58.4,29.90,SSE,157,8.9,-999.0,91,-99.99,,,0.05,Acu-Link.com,2013-03-09 03:41:00,
2013-03-08 21:56:00,61.0,58.0,29.89,SE,135,5.8,-999.0,90,-99.99,,,0.05,Acu-Link.com,2013-03-09 03:56:00,
2013-03-08 22:11:00,61.0,57.7,29.89,SSE,157,7.3,-999.0,89,-99.99,,,0.06,Acu-Link.com,2013-03-09 04:11:00,
2013-03-08 22:26:00,61.0,57.7,29.89,SSE,157,8.3,-999.0,89,-99.99,,,0.06,Acu-Link.com,2013-03-09 04:26:00,
2013-03-08 22:42:00,61.0,58.0,29.88,SSE,157,7.8,-999.0,90,-99.99,,,0.06,Acu-Link.com,2013-03-09 04:42:00,
2013-03-08 22:57:00,61.5,57.9,29.89,South,180,9.4,-999.0,88,-99.99,,,0.06,Acu-Link.com,2013-03-09 04:57:00,
2013-03-08 23:12:00,61.9,57.7,29.88,South,180,12.5,-999.0,86,-99.99,,,0.06,Acu-Link.com,2013-03-09 05:12:00,
2013-03-08 23:28:00,62.1,57.5,29.88,SSW,202,6.8,-999.0,85,-99.99,,,0.06,Acu-Link.com,2013-03-09 05:28:00,
2013-03-08 23:43:00,61.9,57.0,29.87,SE,135,9.4,-999.0,84,-99.99,,,0.06,Acu-Link.com,2013-03-09 05:43:00,
2013-03-08 23:58:00,61.5,56.9,29.86,SE,135,7.8,-999.0,85,-99.99,,,0.06,Acu-Link.com,2013-03-09 05:58:00,